STARLINK-4598 (53630 NORAD) Tracking and Keplerian Element Data

This shows tracking and keplerian element data for the satellite.

Feedback or suggestion? Click here.




ElementValue
Catalog53630
NameSTARLINK-4598
Epoch Orbit130
Epoch Day324.91667824
Epoch Year2022
RAAN232.8444
Inclination53.2176
Eccentricity0.0001455
Argument of Perigee59.1305
Mean Anonmoly215.8317
Mean Motion15.21560627
Decay Rate-0.01147622
L11 53630U 22104AU 22324.91667824 -.01147622 00000+0 -54501-1 0 9992
L22 53630 53.2176 232.8444 0001455 59.1305 215.8317 15.21560627 1304



Live tracking and technical data element details for STARLINK-4598 (NORAD 53630). STARLINK-4598 can be tracked NOW for your location showing map with azimuth and elevation plus other details from your city location.







IsCatalogInMostPopularTable: catalog: 53630, numindb: -1

Insert: records affected: 1


GetName: 53630 STARLINK-4598

Hit Count: inserted at: Thu, 08 Dec 2022 20:55:18 GMT